FW5955 Weather Reports


time (UTC)temp
F
wind
direction
speed
knots
gust
knots
rain 1hr
in
rain 24hr
in
rain mn
in
humidity
%
barometer
mb
20260831121510 64 230 0.0 5.2 0.00 0.09 0.08 84 1012.8
20260831120016 64 278 1.7 6.1 0.00 0.09 0.08 86 1012.7
20260831114508 62 308 0.9 5.2 0.00 0.09 0.08 88 1012.7
20260831113007 62 241 0.9 7.0 0.00 0.09 0.08 90 1012.7
20260831111505 61 274 0.0 4.3 0.00 0.09 0.08 91 1012.6
20260831110003 60 262 0.9 4.3 0.00 0.09 0.08 92 1012.6
20260831104504 59 259 0.0 2.6 0.00 0.09 0.08 92 1012.2
20260831103104 58 257 0.0 0.9 0.00 0.09 0.08 93 1012.2
20260831101559 58 262 0.0 1.7 0.00 0.09 0.08 93 1012.0
20260831094557 59 270 0.9 3.5 0.01 0.09 0.08 93 1011.8
20260831093054 59 280 0.9 3.5 0.02 0.09 0.08 93 1011.7
20260831091552 59 247 0.0 3.5 0.02 0.09 0.08 93 1011.4
20260831090048 60 332 0.9 3.5 0.02 0.09 0.08 93 1011.2
20260831084552 60 273 0.0 2.6 0.00 0.07 0.06 93 1011.0
20260831083048 61 257 0.9 3.5 0.00 0.07 0.06 93 1011.0
20260831081600 61 258 0.9 4.3 0.01 0.07 0.06 93 1011.1
20260831080041 61 276 0.9 2.6 0.01 0.07 0.06 93 1010.8
20260831074544 61 290 0.0 4.3 0.02 0.07 0.06 93 1011.0
20260831073106 61 271 0.0 3.5 0.02 0.07 0.06 93 1011.1
20260831071538 61 307 0.0 2.6 0.01 0.06 0.06 93 1011.0
20260831070037 62 274 0.0 3.5 0.01 0.06 0.06 93 1010.9
20260831064540 62 280 0.9 3.5 0.00 0.06 0.05 93 1011.1
20260831063035 62 260 0.0 2.6 0.01 0.06 0.05 93 1010.7
20260831061538 62 252 0.0 2.6 0.01 0.06 0.05 93 1010.4
20260831060031 62 274 0.0 1.7 0.02 0.06 0.05 92 1010.6
20260831054534 63 263 0.0 2.6 0.02 0.06 0.05 92 1010.7
20260831053033 63 259 0.0 2.6 0.01 0.05 0.04 92 1010.6
20260831051528 63 258 0.9 3.5 0.01 0.05 0.04 92 1010.8
20260831050039 63 247 1.7 7.8 0.02 0.04 0.03 92 1010.9
20260831044525 64 162 0.9 7.0 0.03 0.04 0.03 92 1011.0
20260831043027 64 285 1.7 7.0 0.03 0.04 0.03 92 1011.0
20260831041527 64 305 1.7 7.0 0.03 0.04 0.03 92 1010.8
20260831040040 65 255 2.6 9.6 0.02 0.02 0.02 91 1011.0
20260831034529 65 143 0.9 8.7 0.00 0.01 0.00 91 1011.0
20260831033020 65 245 6.1 12.2 0.00 0.01 0.00 91 1010.8
20260831031515 65 259 3.5 11.3 0.00 0.01 0.00 91 1010.7
20260831030024 65 264 7.0 13.0 0.00 0.01 0.00 91 1011.0
20260831024511 65 264 4.3 8.7 0.00 0.01 0.01 92 1011.2
20260831023009 65 252 6.1 11.3 0.00 0.01 0.01 91 1011.4
20260831021507 65 236 6.1 11.3 0.00 0.01 0.01 91 1011.7
20260831020006 65 242 5.2 9.6 0.01 0.01 0.01 91 1012.0
20260831014505 65 284 7.0 11.3 0.01 0.01 0.01 91 1012.1
20260831013003 65 262 5.2 10.4 0.01 0.01 0.01 91 1012.4
20260831011502 65 251 3.5 9.6 0.01 0.01 0.01 91 1012.4
20260831010104 65 250 5.2 10.4 0.00 0.00 0.00 91 1012.4
20260831004502 65 250 3.5 7.8 0.00 0.00 0.00 90 1012.5
20260831003100 66 265 2.6 9.6 0.00 0.00 0.00 89 1012.5
20260831001559 66 278 2.6 7.0 0.00 0.00 0.00 89 1012.5
20260831000103 66 243 5.2 10.4 0.00 0.00 0.00 89 1012.6
20260830234606 66 283 4.3 10.4 0.00 0.00 0.00 89 1012.5
20260830233103 66 255 5.2 12.2 0.00 0.00 0.00 89 1012.7
20260830231555 67 245 7.0 14.8 0.00 0.00 0.00 90 1012.8
20260830230054 67 269 8.7 15.6 0.00 0.00 0.00 89 1013.0
20260830224554 68 270 7.0 14.8 0.00 0.00 0.00 87 1013.0
20260830223053 68 253 6.1 14.8 0.00 0.00 0.00 87 1012.8
20260830221555 68 247 5.2 11.3 0.00 0.00 0.00 86 1012.8
20260830214552 69 245 6.1 13.0 0.00 0.00 0.00 85 1012.9
20260830213052 69 229 6.1 13.0 0.00 0.00 0.00 85 1012.9
20260830211553 69 257 4.3 13.9 0.00 0.00 0.00 86 1012.7
20260830210050 69 226 4.3 9.6 0.00 0.00 0.00 86 1012.9
20260830204557 70 264 6.1 13.9 0.00 0.00 0.00 85 1012.9
20260830203049 70 264 6.1 12.2 0.00 0.00 0.00 85 1013.0
20260830201557 69 259 6.1 13.0 0.00 0.00 0.00 85 1013.0
20260830200048 69 224 8.7 14.8 0.00 0.00 0.00 85 1013.3
20260830194549 70 229 7.8 16.5 0.00 0.00 0.00 85 1013.4
20260830193043 72 233 8.7 17.4 0.00 0.00 0.00 82 1013.4
20260830191615 71 238 7.0 19.1 0.00 0.00 0.00 83 1013.3
20260830190054 72 240 8.7 17.4 0.00 0.00 0.00 82 1013.6
20260830184540 72 261 7.8 16.5 0.00 0.00 0.00 81 1013.7
20260830183038 72 237 10.4 15.6 0.00 0.00 0.00 81 1013.8
20260830181537 72 275 8.7 13.9 0.00 0.00 0.00 79 1014.0
20260830180039 72 206 9.6 15.6 0.00 0.00 0.00 79 1014.2
20260830174536 72 250 8.7 17.4 0.00 0.00 0.00 79 1014.4
20260830173036 72 274 9.6 17.4 0.00 0.00 0.00 74 1014.5
20260830171532 73 232 7.8 14.8 0.00 0.00 0.00 75 1014.6
20260830170030 72 283 6.1 13.9 0.00 0.00 0.00 74 1014.7
20260830164528 72 337 7.8 15.6 0.00 0.00 0.00 73 1014.9
20260830163036 72 222 7.8 12.2 0.00 0.00 0.00 75 1015.1
20260830161523 72 240 6.1 10.4 0.00 0.00 0.00 77 1015.3
20260830160030 72 255 6.1 11.3 0.00 0.00 0.00 73 1015.3
20260830154523 71 247 6.1 12.2 0.00 0.00 0.00 76 1015.8
20260830153016 70 219 6.1 12.2 0.00 0.00 0.00 77 1016.2
20260830151514 70 305 6.1 10.4 0.00 0.00 0.00 78 1016.3
20260830150019 70 266 4.3 10.4 0.00 0.00 0.00 78 1016.6
20260830144519 69 250 5.2 9.6 0.00 0.00 0.00 77 1016.9
20260830143006 69 270 4.3 9.6 0.00 0.00 0.00 77 1017.1
20260830141505 69 250 3.5 8.7 0.00 0.00 0.00 78 1017.0
20260830140001 68 251 5.2 10.4 0.00 0.00 0.00 79 1017.1
20260830134559 68 290 4.3 12.2 0.00 0.00 0.00 81 1017.3
20260830133105 67 246 5.2 10.4 0.00 0.00 0.00 79 1017.4
20260830131558 67 268 4.3 10.4 0.00 0.00 0.00 79 1017.4
20260830130106 68 256 3.5 7.8 0.00 0.00 0.00 80 1017.4
20260830124554 67 266 2.6 9.6 0.00 0.00 0.00 81 1017.5
20260830123054 67 219 3.5 7.8 0.00 0.00 0.00 80 1017.6